Weather in Kotovsk

Russia / Tambov Oblast     52°35′34″N   41°30′20″E
temp.,
°C
wind,
m/s
gust,
m/s
humid.,
%
clouds,
%
prec.,
mm/h
press.,
hPa
HPBL,
m
28 february, sun
sun2800:00−9nnw4793100 0.0 1012328
03:00−10nw359592 0.0 1014178
06:00−11nw359449 0.0 1015184
09:00−9nw369260 0.0 1015351
12:00−6nw358899 0.1 1016534
15:00−6nw468799 0.1 1016523
18:00−7nnw3594100 0.0 1017164
21:00−8n269598 0.0 1019175
1 march, mon
mon100:00−9nne229578 0.0 102132
03:00−10nnw129568 0.0 102221
06:00−10nnw229565 0.0 102325
09:00−7w239382 0.1 1026179
12:00−4nw4585100 0.1 1026621
15:00−3w3482100 0.1 1025585
18:00−6wsw369576 0.0 1024124
21:00−3wsw5109287 0.0 1023496
2 march, tue
tue200:00−4wsw61293100 0.0 1020391
03:00−2wsw71394100 0.1 1017495
06:00−1wsw71492100 0.3 1013575
09:00+1w81597100 1.1 1010741
12:00+1wnw71398100 0.5 1008690
15:00+1nw6129498 0.9 1008818
18:00−1nw5138877 0.1 1008381
21:00−2wnw5139286 0.2 1010477
3 march, wed
wed300:00−2nw5129498 0.1 1010501
03:00−3nw6119199 0.3 1010565
06:00−3nw61193100 0.1 1011673
09:00−4nnw8128998 0.3 1013777
12:00−3nw71184100 0.1 1015942
15:00−2nnw81180100 0.2 10161081
18:00−3nw61289100 0.1 1017732
21:00−5nw5128973 0.2 1019392
4 march, thu
thu400:00−6nw379312 0.0 1020179
03:00−6w479539 0.0 1020201
06:00−7wsw389447 0.0 1020147
09:00−4wsw5119024 0.0 1019381
12:00−1wsw7128430 0.0 1017635
15:000wsw7138037 0.0 1015698
18:00−1sw5148354 0.0 1012388
21:00−1sw7168337 0.0 1011523